铱星星座 149星 (IRIDIUM 149)

导读

IRIDIUM 149(铱星149)是美国于2018年3月30日08:00发射的低轨道通信卫星,隶属于铱星卫星移动通信系统。该系统由66颗卫星组网实现全球覆盖,为偏远地区、航空、航海及应急场景提供全天候语音与数据通信服务。卫星采用三轴稳定设计,依托星间链路保障通信效率,是铱星系统全球无缝覆盖网络的重要组成部分。

基本信息
目录编号:
43250
目录名称:
IRIDIUM 149
国际标识:
2018-030B
轨道中心:
EARTH
卫星名称:
铱星星座 149星
卫星全名:
铱星星座 149星 (IRIDIUM 149)
卫星状态:
在轨 (已飞行3041 天)
发射日期:
2018-03-30 UTC
国别 :
美国 (US)
星等 :
--
轨道信息
数据来源 国际轨道数据
星历时间: 2026-07-27T13:08:35+0800
17小时前
查看轨道信息
半长轴: 7155.806km
偏心率: 0.0002142
轨道倾角: 86.394°
近地点辐角 94.314°
升交点赤经 273.631°
平近点角 265.830°
近地点: 776.136km
远地点: 779.202km
周期: 100.403分钟
每日圈数: 14.342174
详细信息
平衡模式:
三轴稳定
覆盖范围:
全球
运营商:
铱星通信公司
运营商所在国:
美国
制造商(研发单位):
阿莱尼亚宇航公司
制造商所在国:
意大利
使用方式:
暂无
卫星简介
铱星(Iridium)是由共66个运作中的通信卫星组成的卫星通信系统。这个系统原本规划77个通信卫星,所以用原子序数为77的铱元素来命名。铱卫星允许人们使用手持型电子设备进行全球性的语音及数据通讯。该卫星仍在工作。
2D轨道图
3D轨道图
轨道高度分析图
轨道倾角分析图
轨道综合分析图
查看轨道综合分析图